Nebraska City, NE

3:14 AM CDT on April 23, 2017 (GMT -0500)
Nebraska City Municipal

Weather History for KAFK - January, 2014

Change the Weather History Date:

Wednesday, January 15, 2014

  Actual Average (KSDA) Record (KSDA)
Temperature  
Mean Temperature 24 °F -  
Max Temperature 37 °F 33 °F 80 °F (1997)
Min Temperature 11 °F 14 °F -22 °F (1979)
Degree Days  
Heating Degree Days 41    
Moisture  
Dew Point 14 °F    
Average Humidity 64    
Maximum Humidity 81    
Minimum Humidity 49    
Precipitation  
Precipitation 0.00 in - - ()
Sea Level Pressure  
Sea Level Pressure 30.05 in    
Wind  
Wind Speed 11 mph (WSW)    
Max Wind Speed 20 mph    
Max Gust Speed 22 mph    
Visibility 10 miles    
Events      
Averages and records for this station are not official NWS values.
T = Trace of Precipitation, MM = Missing Value Source: NWS Daily Summary

Daily Weather History Graph

Daily Weather History Graph

Search for Another Location

Airport or City:

Trip Planner

Search our weather history database for the weather conditions in past years. The results will help you decide how hot, cold, wet, or windy it might be!

Date:

Astronomy

Jan. 15, 2014 Rise Set
Actual Time 7:45 AM CST 5:21 PM CST
Civil Twilight 7:15 AM CST 5:51 PM CST
Nautical Twilight 6:41 AM CST 6:24 PM CST
Astronomical Twilight 6:08 AM CST 6:57 PM CST
Moon 5:20 PM CST (1/15) 7:01 AM CST (1/15)
Length of Visible Light 10h 36m
Length of Day
9h 36m
Full, 100% of the Moon is Illuminated
Jan 15
Full
Jan 15
Full
Jan 23
Last Quarter
Jan 30
New
Feb 6
First Quarter

Hourly Weather History & Observations

Time (CST) Temp. Windchill Dew Point Humidity Pressure Visibility Wind Dir Wind Speed Gust Speed Precip Events Conditions
12:15 AM 20.5 °F 6.9 °F 11.3 °F 68% 30.23 in 10.0 mi NNW 15.0 mph 20.7 mph N/A   Clear
12:35 AM 19.9 °F 6.7 °F 10.8 °F 68% 30.23 in 10.0 mi NNW 13.8 mph - N/A   Clear
12:55 AM 19.0 °F 6.8 °F 10.2 °F 69% 30.23 in 10.0 mi NNW 11.5 mph - N/A   Clear
1:15 AM 18.5 °F 6.8 °F 9.5 °F 68% 30.23 in 10.0 mi NNW 10.4 mph - N/A   Clear
1:35 AM 18.5 °F 3.8 °F 9.3 °F 67% 30.23 in 10.0 mi NNW 16.1 mph - N/A   Clear
1:55 AM 18.1 °F 3.9 °F 8.6 °F 66% 30.23 in 10.0 mi NNW 15.0 mph - N/A   Clear
2:15 AM 17.4 °F 5.4 °F 8.4 °F 68% 30.23 in 10.0 mi NNW 10.4 mph - N/A   Clear
2:35 AM 17.1 °F 3.6 °F 8.6 °F 69% 30.24 in 10.0 mi NNW 12.7 mph - N/A   Clear
2:55 AM 17.1 °F 2.5 °F 8.4 °F 69% 30.24 in 10.0 mi NNW 15.0 mph 21.9 mph N/A   Clear
3:15 AM 16.7 °F 2.0 °F 8.4 °F 70% 30.23 in 10.0 mi NNW 15.0 mph - N/A   Clear
3:35 AM 16.2 °F 1.3 °F 8.1 °F 70% 30.23 in 10.0 mi NNW 15.0 mph 20.7 mph N/A   Clear
3:55 AM 15.6 °F 1.8 °F 8.1 °F 72% 30.23 in 10.0 mi NNW 12.7 mph - N/A   Clear
4:15 AM 15.4 °F 3.0 °F 8.2 °F 73% 30.22 in 10.0 mi NNW 10.4 mph - N/A   Clear
4:35 AM 14.9 °F 2.3 °F 7.9 °F 74% 30.22 in 10.0 mi NNW 10.4 mph - N/A   Clear
4:55 AM 14.5 °F 2.7 °F 7.7 °F 74% 30.22 in 10.0 mi NNW 9.2 mph - N/A   Clear
5:15 AM 14.2 °F 5.3 °F 7.7 °F 75% 30.23 in 10.0 mi NNW 5.8 mph - N/A   Clear
5:35 AM 13.1 °F 2.8 °F 7.2 °F 77% 30.23 in 10.0 mi NW 6.9 mph - N/A   Clear
5:55 AM 13.5 °F 3.3 °F 7.7 °F 78% 30.23 in 10.0 mi NW 6.9 mph - N/A   Clear
6:15 AM 12.7 °F 3.6 °F 7.3 °F 79% 30.22 in 10.0 mi WNW 5.8 mph - N/A   Clear
6:35 AM 12.9 °F 5.2 °F 7.5 °F 79% 30.21 in 10.0 mi West 4.6 mph - N/A   Clear
6:55 AM 13.1 °F - 7.7 °F 79% 30.21 in 10.0 mi Calm Calm - N/A   Clear
7:15 AM 13.1 °F 4.0 °F 7.7 °F 79% 30.21 in 10.0 mi West 5.8 mph - N/A   Clear
7:35 AM 12.0 °F 4.1 °F 6.8 °F 80% 30.21 in 10.0 mi West 4.6 mph - N/A   Clear
7:55 AM 12.0 °F 4.1 °F 6.4 °F 78% 30.21 in 10.0 mi West 4.6 mph - N/A   Clear
8:15 AM 11.7 °F 2.3 °F 6.8 °F 81% 30.21 in 10.0 mi West 5.8 mph - N/A   Clear
8:35 AM 13.6 °F 7.7 °F 8.4 °F 80% 30.21 in 10.0 mi WSW 3.5 mph - N/A   Clear
8:55 AM 15.4 °F 8.1 °F 8.8 °F 75% 30.21 in 10.0 mi West 4.6 mph - N/A   Clear
9:15 AM 16.9 °F 11.5 °F 9.0 °F 71% 30.22 in 10.0 mi West 3.5 mph - N/A   Clear
9:35 AM 18.1 °F - 7.7 °F 64% 30.21 in 10.0 mi Calm Calm - N/A   Clear
9:55 AM 19.4 °F 14.3 °F 8.8 °F 63% 30.20 in 10.0 mi SSW 3.5 mph - N/A   Clear
10:15 AM 20.7 °F 15.8 °F 8.6 °F 60% 30.19 in 10.0 mi SW 3.5 mph - N/A   Clear
10:35 AM 21.7 °F - 8.1 °F 56% 30.18 in 10.0 mi Calm Calm - N/A   Clear
10:55 AM 22.3 °F 17.6 °F 7.7 °F 54% 30.17 in 10.0 mi South 3.5 mph - N/A   Scattered Clouds
11:15 AM 24.3 °F 19.9 °F 8.8 °F 52% 30.16 in 10.0 mi SSW 3.5 mph - N/A   Scattered Clouds
11:35 AM 24.6 °F 17.7 °F 8.8 °F 51% 30.14 in 10.0 mi South 5.8 mph - N/A   Clear
11:55 AM 25.3 °F 19.7 °F 9.1 °F 50% 30.14 in 10.0 mi SSW 4.6 mph - N/A   Scattered Clouds
12:15 PM 27.1 °F 20.7 °F 10.6 °F 50% 30.11 in 10.0 mi SSW 5.8 mph - N/A   Scattered Clouds
12:35 PM 27.1 °F 19.7 °F 10.8 °F 50% 30.09 in 10.0 mi SSW 6.9 mph - N/A   Mostly Cloudy
12:55 PM 27.5 °F 18.0 °F 11.1 °F 50% 30.07 in 10.0 mi SW 10.4 mph - N/A   Overcast
1:15 PM 28.4 °F 19.7 °F 12.4 °F 51% 30.06 in 10.0 mi SW 9.2 mph - N/A   Overcast
1:35 PM 29.7 °F 21.3 °F 13.3 °F 51% 30.04 in 10.0 mi SSW 9.2 mph - N/A   Overcast
1:55 PM 31.8 °F 22.8 °F 14.4 °F 49% 30.02 in 10.0 mi South 11.5 mph - N/A   Overcast
2:15 PM 31.8 °F 21.8 °F 14.7 °F 49% 29.99 in 10.0 mi South 13.8 mph 17.3 mph N/A   Mostly Cloudy
2:35 PM 32.0 °F 22.1 °F 14.9 °F 49% 29.98 in 10.0 mi South 13.8 mph - N/A   Scattered Clouds
2:55 PM 32.0 °F 21.6 °F 15.4 °F 51% 29.96 in 10.0 mi South 15.0 mph - N/A   Clear
3:15 PM 31.8 °F 20.6 °F 16.0 °F 52% 29.95 in 10.0 mi South 17.3 mph - N/A   Clear
3:35 PM 32.0 °F 21.2 °F 17.1 °F 54% 29.95 in 10.0 mi South 16.1 mph - N/A   Clear
3:55 PM 32.0 °F 22.1 °F 17.6 °F 55% 29.94 in 10.0 mi South 13.8 mph - N/A   Mostly Cloudy
4:15 PM 32.9 °F 22.8 °F 18.5 °F 55% 29.93 in 10.0 mi South 15.0 mph 20.7 mph N/A   Overcast
4:35 PM 33.4 °F 22.0 °F 18.9 °F 55% 29.91 in 10.0 mi South 19.6 mph - N/A   Overcast
4:55 PM 33.3 °F 22.8 °F 19.2 °F 56% 29.90 in 10.0 mi South 16.1 mph - N/A   Overcast
5:15 PM 33.1 °F 22.2 °F 19.6 °F 58% 29.89 in 10.0 mi SSW 17.3 mph - N/A   Overcast
5:35 PM 33.1 °F 23.4 °F 20.1 °F 59% 29.90 in 10.0 mi SSW 13.8 mph - N/A   Overcast
5:55 PM 33.1 °F 23.0 °F 20.3 °F 59% 29.88 in 10.0 mi SSW 15.0 mph - N/A   Overcast
6:15 PM 33.1 °F 23.0 °F 20.8 °F 61% 29.87 in 10.0 mi South 15.0 mph - N/A   Mostly Cloudy
6:35 PM 33.1 °F 23.0 °F 21.0 °F 61% 29.86 in 10.0 mi South 15.0 mph - N/A   Overcast
6:55 PM 33.3 °F 22.8 °F 21.2 °F 61% 29.84 in 10.0 mi South 16.1 mph - N/A   Overcast
7:15 PM 33.1 °F 22.6 °F 21.2 °F 62% 29.83 in 10.0 mi South 16.1 mph - N/A   Overcast
7:35 PM 33.1 °F 22.2 °F 21.2 °F 62% 29.81 in 10.0 mi SSW 17.3 mph - N/A   Mostly Cloudy
7:55 PM 33.1 °F 22.6 °F 21.6 °F 63% 29.81 in 10.0 mi SSW 16.1 mph - N/A   Scattered Clouds
8:15 PM 33.4 °F 23.1 °F 21.9 °F 63% 29.80 in 10.0 mi SSW 16.1 mph - N/A   Mostly Cloudy
8:35 PM 33.8 °F 23.9 °F 22.6 °F 64% 29.79 in 10.0 mi SSW 15.0 mph - N/A   Overcast
8:55 PM 34.7 °F 26.9 °F 23.9 °F 65% 29.79 in 10.0 mi SW 10.4 mph - N/A   Overcast
9:15 PM 35.4 °F 27.3 °F 25.0 °F 66% 29.78 in 10.0 mi SW 11.5 mph - N/A   Light Drizzle
9:35 PM 36.1 °F 25.9 °F 25.5 °F 65% 29.76 in 10.0 mi SW 18.4 mph - N/A   Overcast
9:55 PM 36.9 °F 28.7 °F 25.9 °F 64% 29.77 in 10.0 mi SW 12.7 mph - N/A   Overcast
10:15 PM 36.1 °F 29.9 °F 26.1 °F 67% 29.78 in 10.0 mi WSW 8.1 mph - N/A   Mostly Cloudy
10:35 PM 36.7 °F 29.9 °F 26.4 °F 66% 29.77 in 10.0 mi WSW 9.2 mph - N/A   Mostly Cloudy
10:55 PM 35.6 °F 28.0 °F 25.9 °F 68% 29.76 in 10.0 mi SW 10.4 mph - N/A   Scattered Clouds
11:15 PM 35.6 °F 27.5 °F 26.4 °F 69% 29.77 in 10.0 mi WSW 11.5 mph - N/A   Clear
11:35 PM 37.4 °F 30.3 °F 27.3 °F 67% 29.77 in 10.0 mi West 10.4 mph - N/A   Clear
11:55 PM 37.2 °F 29.6 °F 27.1 °F 67% 29.78 in 10.0 mi West 11.5 mph - N/A   Clear